Station TWCO1 - Toledo Crib, OH Image indicating link to RSS feed of recent meteorological observations for station TWCO1


Conditions at TWCO1 as of
(10:50 pm EDT on 05/27/2023)
0250 GMT on 05/28/2023:
     

Click on the graph icon in the table below to see a time series plot of the last five days of that observation.

5-day plot - Wind Direction Wind Direction (WDIR): E ( 80 deg true )
5-day plot - Wind Speed Wind Speed (WSPD): 6 kts
5-day plot - Wind Gust Wind Gust (GST): 7 kts
5-day plot - Air Temperature Air Temperature (ATMP): 61.2 °F
5-day plot - Water Temperature Water Temperature (WTMP): 61.7 °F
5-day plot - Dew Point Dew Point (DEWP): 53.6 °F
5-day plot - Wind Speed at 10 Meters Wind Speed at 10 meters (WSPD10M): 6 kts
5-day plot - Wind Speed at 20 Meters Wind Speed at 20 meters (WSPD20M): 8 kts
5-day plot -  Wind Speed, Wind Gust and Atmospheric Pressure Combined plot of Wind Speed, Gust, and Air Pressure
Previous observations
TIME
(EDT)
5-day plot - Wind Direction
WDIR
 
5-day plot - Wind Speed
WSPD
kts
5-day plot - Wind Gust
GST
kts
5-day plot - Wave Height
WVHT
ft
5-day plot - Dominant Wave Period
DPD
sec
5-day plot - Average Wave Period
APD
sec
5-day plot - Mean Wave Direction
MWD
 
5-day plot - Atmospheric Pressure
PRES
in
5-day plot - Pressure Tendency
PTDY
in
5-day plot - Air Temperature
ATMP
°F
5-day plot - Water Temperature
WTMP
°F
5-day plot - Dew Point
DEWP
°F
5-day plot - Salinity
SAL
psu
5-day plot - Visibility
VIS
nmi
5-day plot - Tide (above MLLW)
TIDE
ft
2023-05-27 10:40 pm E 6 8------ 61.0 61.7 53.8---
2023-05-27 10:30 pm E 6 7------ 61.2 61.7 54.1---
2023-05-27 10:20 pm E 7 9------ 61.2 61.7 53.8---
2023-05-27 10:10 pmESE 9 11------ 61.3 61.7 53.2---
2023-05-27 10:00 pm E 10 12------ 61.3 61.7 53.4---
2023-05-27 09:50 pm E 10 11------ 61.3 61.7 53.8---
2023-05-27 09:40 pm E 9 11------ 61.3 61.7 53.8---
2023-05-27 09:30 pm E 11 12------ 61.3 61.9 53.6---
2023-05-27 09:20 pm E 11 13------ 61.3 61.9 53.6---
2023-05-27 09:10 pm E 11 13------ 61.3 61.9 54.7---
2023-05-27 09:00 pm E 10 11------ 61.3 61.9 55.0---
2023-05-27 08:50 pm E 10 12------ 61.5 61.9 54.1---
2023-05-27 08:40 pm E 11 12------ 61.7 61.9 53.1---
2023-05-27 08:30 pm E 11 12------ 61.9 61.9 52.5---
2023-05-27 08:20 pm E 10 13------ 61.9 61.9 52.9---
2023-05-27 08:10 pm E 11 13------ 61.9 61.9 52.5---
2023-05-27 08:00 pm E 12 13------ 61.9 61.9 52.0---
2023-05-27 07:50 pm E 13 15------ 61.9 61.9 52.2---
2023-05-27 07:40 pm E 13 15------ 61.7 61.9 52.5---
2023-05-27 07:30 pm E 14 15------ 61.7 61.9 52.3---
2023-05-27 07:20 pm E 12 15------ 61.7 61.9 53.4---
2023-05-27 07:10 pm E 10 11------ 61.7 61.9 54.9---
2023-05-27 07:00 pm E 9 10------ 61.7 61.9 54.9---
2023-05-27 06:50 pm E 8 9------ 61.9 61.9 55.8---
2023-05-27 06:40 pm E 9 11------ 62.1 61.9 54.7---
2023-05-27 06:30 pm E 10 11------ 61.9 61.9 55.2---
2023-05-27 06:20 pm E 10 12------ 62.1 61.9 55.4---
2023-05-27 06:10 pm E 11 12------ 62.1 61.9 54.7---
2023-05-27 06:00 pm E 12 13------ 61.9 61.9 54.3---
2023-05-27 05:50 pm E 13 14------ 61.9 61.9 53.8---
2023-05-27 05:40 pm E 14 15------ 61.7 61.9 53.2---
2023-05-27 05:30 pm E 13 15------ 61.7 61.9 53.8---
2023-05-27 05:20 pm E 13 15------ 61.5 61.9 54.0---
2023-05-27 05:10 pmENE 13 14------ 61.5 62.1 53.6---
2023-05-27 05:00 pmENE 14 15------ 61.5 62.1 52.9---
2023-05-27 04:50 pmENE 15 17------ 61.7 62.1 51.4---
2023-05-27 04:40 pmENE 15 16------ 61.9 62.1 50.4---
2023-05-27 04:30 pmENE 14 16------ 61.7 62.2 51.3---
2023-05-27 04:20 pmENE 14 17------ 61.3 62.2 52.3---
2023-05-27 04:10 pmENE 14 16------ 61.5 62.2 51.4---
2023-05-27 04:00 pmENE 14 15------ 61.7 62.2 50.5---
2023-05-27 03:50 pmENE 13 14------ 61.7 62.1 50.9---
2023-05-27 03:40 pmENE 12 13------ 61.5 61.9 51.3---
2023-05-27 03:30 pmENE 11 12------ 61.3 61.9 52.5---
2023-05-27 03:20 pmENE 11 12------ 61.3 62.1 52.0---
2023-05-27 03:10 pmENE 11 12------ 61.2 62.2 51.6---
2023-05-27 03:00 pmENE 10 12------ 61.0 62.1 52.2---
2023-05-27 02:50 pmENE 10 12------ 61.0 62.2 52.3---
2023-05-27 02:40 pmENE 10 11------ 60.8 62.2 52.2---
2023-05-27 02:30 pmENE 9 10------ 60.6 62.2 52.7---
2023-05-27 02:20 pmENE 9 10------ 60.4 62.1 52.9---
2023-05-27 02:10 pmENE 9 11------ 60.3 62.1 52.9---
2023-05-27 02:00 pmENE 10 11------ 60.1 61.9 52.9---
2023-05-27 01:50 pmENE 10 11------ 60.1 61.7 52.5---
2023-05-27 01:40 pmENE 11 12------ 59.9 61.7 52.9---
2023-05-27 01:30 pmENE 10 12------ 59.7 61.7 53.1---
2023-05-27 01:20 pmENE 9 11------ 59.7 61.7 52.9---
2023-05-27 01:10 pmENE 9 11------ 59.5 61.7 52.7---
2023-05-27 01:00 pmENE 9 11------ 59.5 61.5 52.7---
2023-05-27 12:50 pmENE 9 11------ 59.4 61.5 52.9---
2023-05-27 12:40 pmENE 8 10------ 59.2 61.5 53.2---
2023-05-27 12:30 pmENE 8 10------ 59.4 61.3 52.9---
2023-05-27 12:20 pm NE 9 10------ 59.4 61.2 52.9---
2023-05-27 12:10 pm NE 9 10------ 59.4 61.2 52.5---
2023-05-27 12:00 pm NE 9 11------ 59.4 61.2 52.3---
2023-05-27 11:50 am NE 9 10------ 59.4 61.2 52.2---
2023-05-27 11:40 am NE 9 11------ 59.4 61.0 51.6---
2023-05-27 11:30 amENE 10 12------ 59.4 61.0 50.2---
2023-05-27 11:20 amENE 10 11------ 59.4 61.0 50.2---
2023-05-27 11:10 amENE 9 12------ 59.5 61.0 50.7---
2023-05-27 11:00 am NE 9 12------ 59.5 61.0 51.3---
2023-05-27 10:50 amENE 9 11------ 59.7 61.0 50.4---
2023-05-27 10:40 amENE 10 12------ 59.5 61.0 49.1---
2023-05-27 10:30 amENE 10 12------ 59.5 61.0 49.5---
2023-05-27 10:20 amENE 11 13------ 59.5 61.0 48.9---
2023-05-27 10:10 amENE 11 13------ 59.5 61.0 49.1---
2023-05-27 10:00 amENE 11 13------ 59.5 61.0 48.6---
2023-05-27 09:50 amENE 12 13------ 59.7 61.0 48.0---
2023-05-27 09:40 amENE 12 14------ 59.7 61.0 48.4---
2023-05-27 09:30 amENE 12 13------ 59.9 61.0 48.2---
2023-05-27 09:20 amENE 12 14------ 60.1 61.0 47.1---
2023-05-27 09:10 amENE 13 15------ 60.3 61.0 46.6---
2023-05-27 09:00 amENE 12 13------ 60.3 61.0 47.5---
2023-05-27 08:50 amENE 11 13------ 60.3 61.0 47.5---
2023-05-27 08:40 amENE 11 13------ 60.1 61.0 47.8---
2023-05-27 08:30 amENE 11 12------ 60.1 61.0 48.2---
2023-05-27 08:20 amENE 12 14------ 59.7 61.0 48.0---
2023-05-27 08:10 amENE 12 14------ 59.5 61.0 48.0---
2023-05-27 08:00 amENE 11 13------ 59.5 61.0 48.4---
2023-05-27 07:50 amENE 12 14------ 59.4 61.0 48.6---
2023-05-27 07:40 amENE 12 13------ 59.5 61.0 48.7---
2023-05-27 07:30 amENE 12 14------ 59.5 61.0 48.4---
2023-05-27 07:20 amENE 12 14------ 59.5 61.0 48.4---
2023-05-27 07:10 am NE 12 14------ 59.5 61.0 48.4---
2023-05-27 07:00 am NE 12 15------ 59.5 61.0 48.0---
2023-05-27 06:50 amENE 12 14------ 59.5 61.0 48.2---
2023-05-27 06:40 amENE 12 13------ 59.7 61.0 48.0---
2023-05-27 06:30 amENE 12 13------ 59.5 61.0 47.8---
2023-05-27 06:20 amENE 12 14------ 59.5 61.0 47.7---
2023-05-27 06:10 amENE 11 13------ 59.4- 48.4---
2023-05-27 06:00 amENE 12 13------ 59.4 61.0 48.0---
2023-05-27 05:50 amENE 12 14------ 59.4 61.2 48.0---
2023-05-27 05:40 amENE 13 15------ 59.7 61.2 47.1---
2023-05-27 05:30 amENE 13 15------ 59.7 61.2 47.1---
2023-05-27 05:20 am NE 13 15------ 59.7 61.2 47.1---
2023-05-27 05:10 am NE 12 15------ 59.9 61.2 47.5---
2023-05-27 05:00 amENE 12 15------ 60.1 61.2 47.5---
2023-05-27 04:50 amENE 12 14------ 60.1 61.2 47.1---
2023-05-27 04:40 am NE 11 14------ 59.7 61.2 48.7---
2023-05-27 04:30 am NE 11 13------ 59.7 61.2 48.2---
2023-05-27 04:20 am NE 11 14------ 59.9 61.2 47.7---
2023-05-27 04:10 am NE 11 13------ 59.9 61.2 48.4---
2023-05-27 04:00 am NE 12 14------ 60.1 61.2 47.7---
2023-05-27 03:50 am NE 12 15------ 60.1 61.2 47.7---
2023-05-27 03:40 am NE 12 14------ 60.1 61.2 46.9---
2023-05-27 03:30 am NE 12 15------ 59.9 61.2 47.5---
2023-05-27 03:20 am NE 11 13------ 59.9 61.2 49.1---
2023-05-27 03:10 am NE 10 12------ 60.1 61.2 49.1---
2023-05-27 03:00 am NE 11 13------ 60.3 61.2 48.7---
2023-05-27 02:50 am NE 11 13------ 60.4 61.2 47.3---
2023-05-27 02:40 am NE 12 14------ 60.6 61.2 46.2---
2023-05-27 02:30 am NE 13 15------ 60.6 61.2 45.5---
2023-05-27 02:20 am NE 13 15------ 60.6 61.2 45.3---
2023-05-27 02:10 amENE 13 15------ 60.4 61.3 45.3---
2023-05-27 02:00 amENE 13 17------ 60.4 61.3 45.7---
2023-05-27 01:50 am NE 14 16------ 60.3 61.3 45.0---
2023-05-27 01:40 amENE 14 16------ 60.1 61.3 45.3---
2023-05-27 01:30 amENE 14 17------ 59.9 61.3 45.9---
2023-05-27 01:20 amENE 14 17------ 59.7 61.3 46.8---
2023-05-27 01:10 amENE 14 17------ 59.9 61.3 47.7---
2023-05-27 01:00 amENE 14 16------ 59.9 61.3 46.9---
2023-05-27 12:50 amENE 14 16------ 60.1 61.3 47.7---
2023-05-27 12:40 amENE 14 16------ 60.1 61.3 46.4---
2023-05-27 12:30 amENE 14 15------ 60.1 61.3 46.6---
2023-05-27 12:20 amENE 14 16------ 60.3 61.3 46.8---
2023-05-27 12:10 amENE 13 16------ 60.4 61.3 47.1---
2023-05-27 12:00 amENE 14 16------ 60.6 61.5 45.3---
2023-05-26 11:50 pmENE 13 15------ 60.8 61.5 46.4---
2023-05-26 11:40 pmENE 12 14------ 60.8 61.5 47.3---
2023-05-26 11:30 pmENE 12 14------ 60.8 61.5 47.7---
2023-05-26 11:20 pmENE 13 15------ 61.0 61.5 47.3---
2023-05-26 11:10 pmENE 12 14------ 60.8 61.5 48.0---
2023-05-26 11:00 pmENE 13 15------ 61.0 61.5 46.8---
2023-05-26 10:50 pm E 14 16------ 61.0 61.5 47.1---